TimeCST,TemperatureF,Dew PointF,Humidity,Sea Level PressureIn,VisibilityMPH,Wind Direction,Wind SpeedMPH,Gust SpeedMPH,PrecipitationIn,Events,Conditions,WindDirDegrees,DateUTC
12:55 AM,18.0,12.9,81,30.13,10.0,SSE,4.6,-,0.00,,Overcast,150,2013-11-28 06:55:00
1:55 AM,18.0,12.9,81,30.13,5.0,Calm,Calm,-,0.00,Snow,Light Snow,0,2013-11-28 07:55:00
2:55 AM,18.0,14.0,84,30.14,4.0,Calm,Calm,-,0.00,Snow,Light Snow,0,2013-11-28 08:55:00
3:43 AM,17.6,12.2,79,30.05,1.8,Calm,Calm,-,0.00,Snow,Light Snow,0,2013-11-28 09:43:00
3:55 AM,18.0,12.9,81,30.15,1.0,Calm,Calm,-,0.00,Snow,Light Snow,0,2013-11-28 09:55:00
4:28 AM,17.6,14.0,86,30.06,2.5,SW,3.5,-,0.00,Snow,Light Snow,220,2013-11-28 10:28:00
4:37 AM,17.6,14.0,86,30.06,4.0,WSW,3.5,-,0.01,Snow,Light Snow,250,2013-11-28 10:37:00
4:55 AM,18.0,12.9,81,30.15,3.0,Calm,Calm,-,0.01,Snow,Light Snow,0,2013-11-28 10:55:00
5:55 AM,18.0,12.9,81,30.17,9.0,WNW,3.5,-,0.00,Snow,Light Snow,290,2013-11-28 11:55:00
6:55 AM,18.0,12.9,81,30.19,9.0,WNW,5.8,-,0.00,Snow,Light Snow,300,2013-11-28 12:55:00
7:55 AM,18.0,12.9,81,30.21,10.0,NW,5.8,-,0.00,,Overcast,320,2013-11-28 13:55:00
8:55 AM,18.0,12.9,81,30.24,10.0,NNW,9.2,-,N/A,,Mostly Cloudy,340,2013-11-28 14:55:00
9:55 AM,19.9,10.9,68,30.26,10.0,NNW,6.9,-,N/A,,Scattered Clouds,340,2013-11-28 15:55:00
10:55 AM,21.0,12.0,68,30.28,10.0,NW,9.2,-,N/A,,Scattered Clouds,320,2013-11-28 16:55:00
11:09 AM,21.2,12.2,68,30.20,10.0,North,8.1,-,N/A,,Mostly Cloudy,360,2013-11-28 17:09:00
11:55 AM,19.9,12.0,71,30.30,10.0,NNW,9.2,-,N/A,,Mostly Cloudy,330,2013-11-28 17:55:00
12:55 PM,21.0,12.0,68,30.32,7.0,NW,11.5,-,0.00,Snow,Light Snow,320,2013-11-28 18:55:00
1:55 PM,21.9,12.0,66,30.33,5.0,NW,9.2,-,0.00,Snow,Light Snow,320,2013-11-28 19:55:00
2:55 PM,21.0,12.0,68,30.36,4.0,NW,6.9,-,0.00,Snow,Light Snow,320,2013-11-28 20:55:00
3:24 PM,19.4,12.2,74,30.29,2.0,NNW,9.2,-,0.00,Snow,Light Snow,330,2013-11-28 21:24:00
3:50 PM,19.4,12.2,74,30.30,4.0,NW,9.2,-,0.00,Snow,Light Snow,310,2013-11-28 21:50:00
3:55 PM,19.0,12.0,74,30.39,6.0,NW,8.1,-,0.00,Snow,Light Snow,320,2013-11-28 21:55:00
4:55 PM,17.1,10.0,74,30.43,9.0,WNW,5.8,-,0.00,Snow,Light Snow,300,2013-11-28 22:55:00
5:02 PM,15.8,10.4,79,30.34,10.0,WNW,5.8,-,N/A,,Scattered Clouds,300,2013-11-28 23:02:00
5:55 PM,14.0,9.0,80,30.46,9.0,WNW,6.9,-,0.00,,Scattered Clouds,300,2013-11-28 23:55:00
6:55 PM,12.9,8.1,81,30.48,10.0,WNW,5.8,-,N/A,,Partly Cloudy,300,2013-11-29 00:55:00
7:55 PM,12.0,8.1,84,30.49,10.0,NW,5.8,-,N/A,,Clear,310,2013-11-29 01:55:00
8:55 PM,10.9,8.1,88,30.50,10.0,NW,4.6,-,N/A,,Clear,310,2013-11-29 02:55:00
9:55 PM,10.9,7.0,84,30.51,10.0,NW,4.6,-,N/A,,Clear,320,2013-11-29 03:55:00
10:55 PM,10.9,7.0,84,30.53,10.0,NW,4.6,-,N/A,,Clear,320,2013-11-29 04:55:00
11:55 PM,10.0,6.1,84,30.53,10.0,NNW,4.6,-,N/A,,Clear,330,2013-11-29 05:55:00